• In Uzbekistan
  • List of Countries
  • For 7 days
  • Water Temperature
  • Satellite Maps
  • Weather Map
  • Weather Widgets
  • user-avatar
    Login

    Hourly Weather Brisbane

    Today, 18 August, Friday

    Time Temperature Precipitation Wind Pressure Humidity
    00:00 +20°C° 0 mm 3 mps 758 mmHg 39%
    01:00 +19°C° 0 mm 4 mps 758 mmHg 38%
    02:00 +18°C° 0 mm 4 mps 758 mmHg 38%
    03:00 +18°C° 0 mm 4 mps 758 mmHg 37%
    04:00 +17°C° 0 mm 4 mps 758 mmHg 38%
    05:00 +17°C° 0 mm 4 mps 758 mmHg 38%
    06:00 +17°C° 0 mm 4 mps 759 mmHg 39%
    07:00 +15°C° 0 mm 4 mps 759 mmHg 39%
    08:00 +19°C° 0 mm 5 mps 759 mmHg 33%
    09:00 +22°C° 0 mm 6 mps 759 mmHg 27%
    10:00 +25°C° 0 mm 5 mps 759 mmHg 19%
    11:00 +26°C° 0 mm 5 mps 759 mmHg 17%
    12:00 +27°C° 0 mm 6 mps 758 mmHg 16%
    13:00 +28°C° 0 mm 7 mps 758 mmHg 14%
    14:00 +27°C° 0 mm 7 mps 757 mmHg 15%
    15:00 +26°C° 0 mm 7 mps 757 mmHg 16%
    16:00 +24°C° 0 mm 7 mps 757 mmHg 17%
    17:00 +23°C° 0 mm 6 mps 758 mmHg 20%
    18:00 +21°C° 0 mm 6 mps 758 mmHg 23%
    19:00 +19°C° 0 mm 6 mps 759 mmHg 26%
    20:00 +17°C° 0 mm 6 mps 760 mmHg 29%
    21:00 +16°C° 0 mm 6 mps 760 mmHg 32%
    22:00 +15°C° 0 mm 5 mps 760 mmHg 35%
    23:00 +15°C° 0 mm 5 mps 760 mmHg 36%

    Tomorrow, 19 August, Saturday

    Time Temperature Precipitation Wind Pressure Humidity
    00:00 +14°C° 0 mm 6 mps 761 mmHg 38%
    01:00 +14°C° 0 mm 6 mps 761 mmHg 39%
    02:00 +13°C° 0 mm 6 mps 761 mmHg 40%
    03:00 +13°C° 0 mm 6 mps 761 mmHg 40%
    04:00 +11°C° 0 mm 6 mps 761 mmHg 41%
    05:00 +11°C° 0 mm 6 mps 761 mmHg 41%
    06:00 +11°C° 0 mm 7 mps 761 mmHg 41%
    07:00 +10°C° 0 mm 7 mps 761 mmHg 41%
    08:00 +12°C° 0 mm 7 mps 761 mmHg 35%
    09:00 +15°C° 0 mm 8 mps 761 mmHg 29%
    10:00 +17°C° 0 mm 8 mps 761 mmHg 24%
    11:00 +18°C° 0 mm 8 mps 760 mmHg 21%
    12:00 +20°C° 0 mm 8 mps 760 mmHg 19%
    13:00 +21°C° 0 mm 8 mps 759 mmHg 17%
    14:00 +21°C° 0 mm 8 mps 759 mmHg 16%
    15:00 +20°C° 0 mm 7 mps 759 mmHg 16%
    16:00 +20°C° 0 mm 7 mps 759 mmHg 16%
    17:00 +18°C° 0 mm 7 mps 760 mmHg 19%
    18:00 +16°C° 0 mm 7 mps 760 mmHg 21%
    19:00 +14°C° 0 mm 6 mps 761 mmHg 23%
    20:00 +14°C° 0 mm 6 mps 761 mmHg 25%
    21:00 +13°C° 0 mm 6 mps 762 mmHg 26%
    22:00 +11°C° 0 mm 6 mps 762 mmHg 28%
    23:00 +11°C° 0 mm 6 mps 762 mmHg 30%

    Day after tomorrow, 20 August, Sunday

    Time Temperature Precipitation Wind Pressure Humidity
    00:00 +10°C° 0 mm 5 mps 762 mmHg 32%
    01:00 +9°C° 0 mm 5 mps 763 mmHg 33%
    02:00 +9°C° 0 mm 5 mps 762 mmHg 35%
    03:00 +8°C° 0 mm 5 mps 762 mmHg 37%
    04:00 +8°C° 0 mm 5 mps 762 mmHg 39%
    05:00 +8°C° 0 mm 5 mps 763 mmHg 41%
    06:00 +8°C° 0 mm 5 mps 763 mmHg 42%
    07:00 +8°C° 0 mm 5 mps 764 mmHg 44%
    08:00 +12°C° 0 mm 5 mps 764 mmHg 40%
    09:00 +14°C° 0 mm 5 mps 764 mmHg 37%
    10:00 +17°C° 0 mm 5 mps 764 mmHg 33%
    11:00 +19°C° 0 mm 5 mps 763 mmHg 30%
    12:00 +20°C° 0 mm 5 mps 762 mmHg 28%
    13:00 +22°C° 0 mm 5 mps 762 mmHg 25%
    14:00 +22°C° 0 mm 4 mps 762 mmHg 27%
    15:00 +21°C° 0 mm 4 mps 761 mmHg 28%
    16:00 +21°C° 0 mm 4 mps 761 mmHg 29%
    17:00 +19°C° 0 mm 4 mps 762 mmHg 35%
    18:00 +17°C° 0 mm 4 mps 762 mmHg 42%
    19:00 +14°C° 0 mm 3 mps 763 mmHg 48%
    20:00 +14°C° 0 mm 3 mps 763 mmHg 52%
    21:00 +13°C° 0 mm 3 mps 764 mmHg 55%
    22:00 +12°C° 0 mm 3 mps 764 mmHg 59%
    23:00 +12°C° 0 mm 3 mps 764 mmHg 61%

    21 August, Monday

    Time Temperature Precipitation Wind Pressure Humidity
    00:00 +11°C° 0 mm 3 mps 764 mmHg 63%
    01:00 +11°C° 0 mm 3 mps 764 mmHg 66%
    02:00 +10°C° 0 mm 3 mps 763 mmHg 67%
    03:00 +10°C° 0 mm 3 mps 763 mmHg 69%
    04:00 +9°C° 0 mm 3 mps 763 mmHg 71%
    05:00 +10°C° 0 mm 3 mps 763 mmHg 70%
    06:00 +10°C° 0 mm 2 mps 764 mmHg 69%
    07:00 +10°C° 0 mm 2 mps 764 mmHg 68%
    08:00 +14°C° 0 mm 2 mps 764 mmHg 61%
    09:00 +18°C° 0 mm 2 mps 764 mmHg 53%
    10:00 +21°C° 0 mm 2 mps 764 mmHg 46%
    11:00 +23°C° 0 mm 2 mps 764 mmHg 43%
    12:00 +24°C° 0 mm 2 mps 763 mmHg 41%
    13:00 +24°C° 0 mm 2 mps 762 mmHg 38%
    14:00 +24°C° 0 mm 2 mps 762 mmHg 42%
    15:00 +23°C° 0 mm 2 mps 761 mmHg 46%
    16:00 +22°C° 0 mm 3 mps 761 mmHg 50%
    17:00 +20°C° 0 mm 3 mps 762 mmHg 59%
    18:00 +19°C° 0 mm 3 mps 762 mmHg 69%
    19:00 +17°C° 0 mm 3 mps 763 mmHg 79%
    20:00 +17°C° 0 mm 3 mps 763 mmHg 80%
    21:00 +17°C° 0 mm 3 mps 763 mmHg 82%
    22:00 +16°C° 0 mm 3 mps 763 mmHg 84%
    23:00 +16°C° 0 mm 3 mps 762 mmHg 85%

    22 August, Tuesday

    Time Temperature Precipitation Wind Pressure Humidity
    00:00 +16°C° 0 mm 3 mps 762 mmHg 86%
    01:00 +14°C° 0 mm 3 mps 762 mmHg 87%
    02:00 +14°C° 0 mm 3 mps 762 mmHg 88%
    03:00 +14°C° 0 mm 3 mps 761 mmHg 89%
    04:00 +14°C° 0 mm 3 mps 761 mmHg 89%
    05:00 +14°C° 0 mm 4 mps 762 mmHg 89%
    06:00 +14°C° 0 mm 4 mps 762 mmHg 88%
    07:00 +15°C° 0 mm 4 mps 762 mmHg 88%
    08:00 +18°C° 0 mm 4 mps 762 mmHg 76%
    09:00 +21°C° 0 mm 5 mps 762 mmHg 64%
    10:00 +23°C° 0 mm 5 mps 762 mmHg 52%
    11:00 +26°C° 0 mm 5 mps 761 mmHg 43%
    12:00 +27°C° 0 mm 5 mps 760 mmHg 35%
    13:00 +29°C° 0 mm 5 mps 759 mmHg 26%
    14:00 +29°C° 0 mm 5 mps 759 mmHg 25%
    15:00 +29°C° 0 mm 5 mps 759 mmHg 24%
    16:00 +29°C° 0 mm 5 mps 759 mmHg 22%
    17:00 +26°C° 0 mm 4 mps 760 mmHg 25%
    18:00 +23°C° 0 mm 4 mps 760 mmHg 27%
    19:00 +20°C° 0 mm 3 mps 761 mmHg 29%
    20:00 +19°C° 0 mm 3 mps 761 mmHg 33%
    21:00 +18°C° 0 mm 3 mps 762 mmHg 37%
    22:00 +17°C° 0 mm 3 mps 762 mmHg 41%
    23:00 +17°C° 0 mm 3 mps 762 mmHg 45%

    23 August, Wednesday

    Time Temperature Precipitation Wind Pressure Humidity
    00:00 +16°C° 0 mm 3 mps 762 mmHg 50%
    01:00 +14°C° 0 mm 3 mps 762 mmHg 54%
    02:00 +14°C° 0 mm 3 mps 762 mmHg 56%
    03:00 +13°C° 0 mm 3 mps 762 mmHg 59%
    04:00 +13°C° 0 mm 3 mps 762 mmHg 61%
    05:00 +14°C° 0 mm 2 mps 762 mmHg 61%
    06:00 +14°C° 0 mm 2 mps 763 mmHg 62%
    07:00 +14°C° 0 mm 2 mps 763 mmHg 62%
    08:00 +17°C° 0 mm 2 mps 763 mmHg 53%
    09:00 +22°C° 0 mm 1 mps 763 mmHg 44%
    10:00 +25°C° 0 mm 1 mps 763 mmHg 35%
    11:00 +27°C° 0 mm 1 mps 762 mmHg 31%
    12:00 +28°C° 0 mm 1 mps 762 mmHg 28%
    13:00 +30°C° 0 mm 1 mps 761 mmHg 24%
    14:00 +29°C° 0 mm 1 mps 761 mmHg 26%
    15:00 +28°C° 0 mm 2 mps 761 mmHg 27%
    16:00 +28°C° 0 mm 3 mps 761 mmHg 29%
    17:00 +25°C° 0 mm 2 mps 761 mmHg 39%
    18:00 +23°C° 0 mm 2 mps 762 mmHg 49%
    19:00 +19°C° 0 mm 2 mps 762 mmHg 59%
    20:00 +18°C° 0 mm 2 mps 763 mmHg 62%
    21:00 +19°C° 0 mm 1 mps 763 mmHg 65%
    22:00 +18°C° 0 mm 1 mps 763 mmHg 68%
    23:00 +16°C° 0 mm 2 mps 763 mmHg 67%
    Show more